Location: Bishopstone
(51.0167°N, 1.9000°W)
Time: 23:23:19
(UTC+00:00)

Cosmos 1437 Rocket - Pass Details

Date: 16 September 2019
Orbit: 506 x 563 km, 81.2° (Epoch: 14 October)

Event Time Altitude Azimuth Distance (km) Brightness Sun altitude
Rises 21:10:55 0° 341° (NNW) 2,656 7.2 -25.3°
Reaches altitude 10° 21:13:09 10° 334° (NNW) 1,755 6.3 -25.5°
Enters shadow 21:16:32 40° 274° (W) 774 3.8 -25.9°
